Hourly Data Report for October 07, 2016

All times are specified in Local Standard Time (LST). Add 1 hour to adjust for Daylight Saving Time where and when it is observed.

WINNIPEG A CS
MANITOBA

49°55'00.000" N
97°14'58.000" W
238.70 m
502S001
71849
XWG

Download Data

Hourly Data (October 2016)
Hourly Data Report for October 7, 2016
Temp Definition
°C
Dew Point Temp Definition
°C
Rel Hum Definition
%
Wind Dir Definition
10's deg

Wind Spd Definition
km/h
Visibility Definition
km
Stn Press Definition
kPa
Hmdx Definition


Wind Chill Definition


Weather Definition


TIME
00:00 3.2 0.9 85 24 12   98.71     LegendNANA
01:00 3.0 1.9 92 26 13   98.68     LegendNANA
02:00 2.7 2.1 96 27 18   98.68     LegendNANA
03:00 2.4 1.9 97 27 17   98.62     LegendNANA
04:00 2.2 1.5 95 28 18   98.61     LegendNANA
05:00 2.0 1.4 96 28 24   98.59     LegendNANA
06:00 1.5 1.2 97 28 15   98.61     LegendNANA
07:00 2.3 1.9 97 28 16   98.61     LegendNANA
08:00 1.9 1.3 96 28 29   98.60     LegendNANA
09:00 1.9 1.5 97 27 22   98.61     LegendNANA
10:00 3.3 2.5 94 28 31   98.59     LegendNANA
11:00 3.8 2.6 92 28 33   98.61     LegendNANA
12:00 4.2 2.9 91 27 34   98.63     LegendNANA
13:00 4.1 2.9 92 27 38   98.64     LegendNANA
14:00 4.1 2.8 92 28 38   98.65     LegendNANA
15:00 4.2 3.2 93 28 35   98.68     LegendNANA
16:00 3.7 2.9 94 28 35   98.71     LegendNANA
17:00 3.4 2.7 96 28 30   98.75     LegendNANA
18:00 3.2 2.5 96 27 27   98.78     LegendNANA
19:00 3.3 2.9 97 28 23   98.82     LegendNANA
20:00 4.4 4.1 98 30 19   98.88     LegendNANA
21:00 4.6 3.7 94 32 19   98.93     LegendNANA
22:00 4.3 3.3 93 31 20   98.98     LegendNANA
23:00 2.9 2.3 96 31 15   99.00     LegendNANA

Notes on Data Quality.

Legend

  • E = Estimated
  • M = Missing
  • NA = Not Available
  • ‡ = Partner data that is not subject to review by the National Climate Archives
Date modified: